Regional Weather Roundup
Issued by NWS

Home | Current Version | Previous Version | Text Only | Print | Product List | Glossary Off
Versions: 1 2 3 4 5 6 7 8 9 10 11 12 13 14 15 16 17 18 19 20 21 22 23 24 25 26 27 28 29 30 31 32 33 34 35 36 37 38 39 40 41 42 43 44 45 46 47 48 49 50

000
ASUS45 KCYS 021110
RWRWY

WYOMING REGIONAL WEATHER ROUNDUP
NATIONAL WEATHER SERVICE CHEYENNE WY
500 AM MDT TUE JUN 02 2015

NOTE:  "FAIR" INDICATES FEW OR NO CLOUDS BELOW 12,000 FEET
WITH NO SIGNIFICANT WEATHER AND/OR OBSTRUCTIONS TO VISIBILITY.

WYZ001-021200-
YELLOWSTONE NATIONAL PARK

CITY           SKY/WX    TMP DP  RH WIND       PRES   REMARKS
LK YELLOWSTONE   N/A     31  29  92 CALM      30.12
W YELLOWSTONE  NOT AVBL

$$
WYZ002>013-054>058-071-098>099-021200-
NORTHERN WYOMING

CITY           SKY/WX    TMP DP  RH WIND       PRES   REMARKS
JACKSON        MOCLDY    39  39 100 CALM      30.08R VSB 1
CODY           FAIR      48  43  81 SE8       29.94S
GREYBULL       FAIR      49  48  97 SE5       29.90F
WORLAND        FAIR      48  45  89 E3        29.92R
SHERIDAN       FAIR      50  48  93 S3        29.88R
BUFFALO        FAIR      53  49  86 SE9       29.91F
GILLETTE       FAIR      52  50  93 W6        29.88S
HULETT         FAIR      55  50  82 NE3       29.89R
NEWCASTLE      FAIR      54  46  76 SE12      29.87S

$$
WYZ014>020-022>026-101>103-021200-
CENTRAL WYOMING

CITY           SKY/WX    TMP DP  RH WIND       PRES   REMARKS
BIG PINEY      FAIR      39  36  89 NE7       30.08S WCI  34
PINEDALE       FAIR      37  36  93 NW3       30.09R
DUBOIS         PTSUNNY   41  34  75 NW12      30.07R
LANDER         FAIR      50  40  68 NW3       29.96R
RIVERTON       FAIR      51  42  71 W5        29.97S
CASPER         FAIR      49  45  86 N8        29.96S
DOUGLAS        FAIR      58  47  66 W5        29.94F

$$
WYZ021-027>030-104>119-021200-
SOUTHERN WYOMING

CITY           SKY/WX    TMP DP  RH WIND       PRES   REMARKS
EVANSTON       FAIR      48  38  68 SE6       30.05F
KEMMERER       FAIR      41  36  81 N10       30.08S
FORT BRIDGER   SUNNY     48  41  76 CALM      30.08F
ROCK SPRINGS   FAIR      50  38  63 N3        30.05S
DIXON          FAIR      47  41  81 NE6       30.07R
RAWLINS        FAIR      49  45  86 CALM      30.04F
SARATOGA       FAIR      43  41  93 SE6       30.07F
LARAMIE        FAIR      42  40  92 SE7       30.08R
CHEYENNE       FAIR      51  46  83 CALM      30.03R
TORRINGTON     FAIR      54  52  93 W6        29.92R
PINE BLUFFS    CLOUDY    55  54  94 SE7       29.98F

$$



USA.gov is the U.S. government's official web portal to all federal, state and local government web resources and services.